SB KEPS @ AMSAT $ORB11125.O Orbital Elements 11125.OSCAR
HR AMSAT ORBITAL ELEMENTS FOR OSCAR SATELLITES FROM WA5QGD FORT WORTH,TX May 5, 2011 Send Subscribe/unsubscribe to KEPS at http://www.amsat.org/mailman/listinfo/keps BID: ORB11125.O TO ALL RADIO AMATEURS BT
Satellite: AO-07 Catalog number: 07530 Epoch time: 11124.58202319 Element set: 0070 Inclination: 101.3930 deg RA of node: 132.8442 deg Eccentricity: 0.0011893 Arg of perigee: 006.2793 deg Mean anomaly: 353.8428 deg Mean motion: 12.53582238 rev/day Decay rate: -2.7e-07 rev/day^2 Epoch rev: 66872 Checksum: 280
Satellite: FO-29 Catalog number: 24278 Epoch time: 11124.94214898 Element set: 0592 Inclination: 098.5398 deg RA of node: 274.9075 deg Eccentricity: 0.0350838 Arg of perigee: 009.4586 deg Mean anomaly: 351.2932 deg Mean motion: 13.52960509 rev/day Decay rate: -5.5e-07 rev/day^2 Epoch rev: 72661 Checksum: 348
Satellite: SO-33 Catalog number: 25509 Epoch time: 11124.41329260 Element set: 0960 Inclination: 031.4312 deg RA of node: 131.8958 deg Eccentricity: 0.0354309 Arg of perigee: 218.7997 deg Mean anomaly: 138.6688 deg Mean motion: 14.28392393 rev/day Decay rate: 3.21e-06 rev/day^2 Epoch rev: 65401 Checksum: 310
Satellite: RS-22 Catalog number: 27939 Epoch time: 11125.76741697 Element set: 229 Inclination: 097.8516 deg RA of node: 341.7839 deg Eccentricity: 0.0014450 Arg of perigee: 116.7996 deg Mean anomaly: 243.4670 deg Mean motion: 14.63571818 rev/day Decay rate: 3.83e-06 rev/day^2 Epoch rev: 40613 Checksum: 336
Satellite: VO-52 Catalog number: 28650 Epoch time: 11124.68276755 Element set: 0786 Inclination: 097.6449 deg RA of node: 169.7516 deg Eccentricity: 0.0026006 Arg of perigee: 306.2618 deg Mean anomaly: 053.6217 deg Mean motion: 14.82034382 rev/day Decay rate: 1.058e-05 rev/day^2 Epoch rev: 32430 Checksum: 312
Satellite: SO-67 Catalog number: 35870 Epoch time: 11125.84758567 Element set: 805 Inclination: 097.2846 deg RA of node: 170.6116 deg Eccentricity: 0.0002751 Arg of perigee: 135.6528 deg Mean anomaly: 345.3049 deg Mean motion: 15.20650881 rev/day Decay rate: 3.257e-05 rev/day^2 Epoch rev: 9050 Checksum: 316
Satellite: HO-68 Catalog number: 36122 Epoch time: 11125.67425519 Element set: 345 Inclination: 100.4183 deg RA of node: 187.1219 deg Eccentricity: 0.0007344 Arg of perigee: 324.7730 deg Mean anomaly: 035.2898 deg Mean motion: 13.16285739 rev/day Decay rate: -4.5e-07 rev/day^2 Epoch rev: 6664 Checksum: 302
/EX SB KEPS @ AMSAT $ORB11125.D Orbital Elements 11125.MICROS
HR AMSAT ORBITAL ELEMENTS FOR THE MICROSATS FROM WA5QGD FORT WORTH,TX May 5, 2011 Send Subscribe/unsubscribe to KEPS at http://www.amsat.org/mailman/listinfo/keps BID: ORB11125.D TO ALL RADIO AMATEURS BT
Satellite: UO-11 Catalog number: 14781 Epoch time: 11124.86859911 Element set: 0547 Inclination: 098.0097 deg RA of node: 181.7071 deg Eccentricity: 0.0007945 Arg of perigee: 280.9363 deg Mean anomaly: 079.0952 deg Mean motion: 14.79957372 rev/day Decay rate: 7.44e-06 rev/day^2 Epoch rev: 45938 Checksum: 349
Satellite: AO-16 Catalog number: 20439 Epoch time: 11125.88649918 Element set: 180 Inclination: 098.3806 deg RA of node: 076.9262 deg Eccentricity: 0.0010237 Arg of perigee: 292.8655 deg Mean anomaly: 067.1445 deg Mean motion: 14.31916447 rev/day Decay rate: 1.30e-06 rev/day^2 Epoch rev: 11156 Checksum: 308
Satellite: LO-19 Catalog number: 20442 Epoch time: 11124.92463744 Element set: 0107 Inclination: 098.3428 deg RA of node: 080.5165 deg Eccentricity: 0.0011038 Arg of perigee: 287.5373 deg Mean anomaly: 072.4603 deg Mean motion: 14.32142365 rev/day Decay rate: 1.22e-06 rev/day^2 Epoch rev: 11160 Checksum: 262
Satellite: AO-27 Catalog number: 22825 Epoch time: 11125.72916146 Element set: 809 Inclination: 098.5278 deg RA of node: 071.0653 deg Eccentricity: 0.0009219 Arg of perigee: 044.1486 deg Mean anomaly: 316.0427 deg Mean motion: 14.29344064 rev/day Decay rate: 1.06e-06 rev/day^2 Epoch rev: 91812 Checksum: 298
Satellite: IO-26 Catalog number: 22826 Epoch time: 11125.38643433 Element set: 552 Inclination: 098.5231 deg RA of node: 071.2181 deg Eccentricity: 0.0009755 Arg of perigee: 039.4010 deg Mean anomaly: 320.7877 deg Mean motion: 14.29605267 rev/day Decay rate: 1.00e-06 rev/day^2 Epoch rev: 91819 Checksum: 290
Satellite: GO-32 Catalog number: 25397 Epoch time: 11125.23764213 Element set: 471 Inclination: 098.3225 deg RA of node: 120.1004 deg Eccentricity: 0.0002111 Arg of perigee: 059.3857 deg Mean anomaly: 300.7534 deg Mean motion: 14.23206990 rev/day Decay rate: 1.25e-06 rev/day^2 Epoch rev: 66585 Checksum: 266
Satellite: NO-44 Catalog number: 26931 Epoch time: 11124.94725294 Element set: 0745 Inclination: 067.0496 deg RA of node: 094.9417 deg Eccentricity: 0.0007200 Arg of perigee: 263.4885 deg Mean anomaly: 096.5398 deg Mean motion: 14.29653424 rev/day Decay rate: -1.03e-06 rev/day^2 Epoch rev: 50074 Checksum: 318
Satellite: SO-50 Catalog number: 27607 Epoch time: 11125.39273334 Element set: 457 Inclination: 064.5564 deg RA of node: 097.7112 deg Eccentricity: 0.0068258 Arg of perigee: 330.8133 deg Mean anomaly: 028.9170 deg Mean motion: 14.71724888 rev/day Decay rate: 7.79e-06 rev/day^2 Epoch rev: 44979 Checksum: 337
Satellite: CO-55 Catalog number: 27844 Epoch time: 11125.50107961 Element set: 102 Inclination: 098.7061 deg RA of node: 134.8225 deg Eccentricity: 0.0009380 Arg of perigee: 327.0078 deg Mean anomaly: 033.0518 deg Mean motion: 14.20802307 rev/day Decay rate: 2.11e-06 rev/day^2 Epoch rev: 40685 Checksum: 264
Satellite: CO-57 Catalog number: 27848 Epoch time: 11125.57874269 Element set: 51 Inclination: 098.7117 deg RA of node: 134.0734 deg Eccentricity: 0.0009497 Arg of perigee: 331.7902 deg Mean anomaly: 028.2745 deg Mean motion: 14.20582753 rev/day Decay rate: 1.59e-06 rev/day^2 Epoch rev: 40681 Checksum: 323
Satellite: AO-51 Catalog number: 28375 Epoch time: 11124.63599779 Element set: 960 Inclination: 098.0946 deg RA of node: 105.3802 deg Eccentricity: 0.0082884 Arg of perigee: 201.8801 deg Mean anomaly: 157.8837 deg Mean motion: 14.40751695 rev/day Decay rate: 1.20e-06 rev/day^2 Epoch rev: 35979 Checksum: 342
Satellite: CP3 Catalog number: 31129 Epoch time: 11124.61154775 Element set: 0862 Inclination: 097.9010 deg RA of node: 151.3350 deg Eccentricity: 0.0101215 Arg of perigee: 316.8668 deg Mean anomaly: 042.4626 deg Mean motion: 14.52462723 rev/day Decay rate: 5.56e-06 rev/day^2 Epoch rev: 21451 Checksum: 270
Satellite: CO-65 Catalog number: 32785 Epoch time: 11125.27184208 Element set: 981 Inclination: 097.8518 deg RA of node: 189.9792 deg Eccentricity: 0.0014093 Arg of perigee: 319.8268 deg Mean anomaly: 040.1899 deg Mean motion: 14.81964832 rev/day Decay rate: 1.128e-05 rev/day^2 Epoch rev: 16318 Checksum: 350
Satellite: KKS-1 Catalog number: 33493 Epoch time: 11125.75014802 Element set: 550 Inclination: 098.1185 deg RA of node: 253.7584 deg Eccentricity: 0.0019975 Arg of perigee: 175.0098 deg Mean anomaly: 185.1333 deg Mean motion: 14.81622877 rev/day Decay rate: 2.650e-05 rev/day^2 Epoch rev: 12323 Checksum: 300
Satellite: SOHLA-1 Catalog number: 33496 Epoch time: 11124.88371996 Element set: 0414 Inclination: 098.0761 deg RA of node: 235.1633 deg Eccentricity: 0.0005526 Arg of perigee: 262.1048 deg Mean anomaly: 097.9530 deg Mean motion: 14.69605960 rev/day Decay rate: 4.95e-06 rev/day^2 Epoch rev: 12212 Checksum: 305
Satellite: TISAT-1 Catalog number: 36799 Epoch time: 11125.76188510 Element set: 825 Inclination: 098.1042 deg RA of node: 193.5864 deg Eccentricity: 0.0016496 Arg of perigee: 057.2938 deg Mean anomaly: 302.9877 deg Mean motion: 14.80507654 rev/day Decay rate: 1.661e-05 rev/day^2 Epoch rev: 4403 Checksum: 326
Satellite: STUDSAT Catalog number: 36801 Epoch time: 11124.75744378 Element set: 178 Inclination: 098.1085 deg RA of node: 192.4209 deg Eccentricity: 0.0014705 Arg of perigee: 049.2426 deg Mean anomaly: 311.0061 deg Mean motion: 14.80479482 rev/day Decay rate: 3.947e-05 rev/day^2 Epoch rev: 4387 Checksum: 302
Satellite: RAX Catalog number: 37223 Epoch time: 11089.46431449 Element set: 0122 Inclination: 071.9716 deg RA of node: 212.4675 deg Eccentricity: 0.0019443 Arg of perigee: 068.5267 deg Mean anomaly: 291.7923 deg Mean motion: 14.77296529 rev/day Decay rate: 6.60e-06 rev/day^2 Epoch rev: 01926 Checksum: 313
Satellite: OOREOS Catalog number: 37224 Epoch time: 11076.42207246 Element set: 0109 Inclination: 071.9712 deg RA of node: 241.3960 deg Eccentricity: 0.0017800 Arg of perigee: 096.5373 deg Mean anomaly: 263.7815 deg Mean motion: 14.76929834 rev/day Decay rate: 8.68e-06 rev/day^2 Epoch rev: 01732 Checksum: 300
Satellite: FAST1 Catalog number: 37227 Epoch time: 11125.24135406 Element set: 0018 Inclination: 071.9684 deg RA of node: 133.9575 deg Eccentricity: 0.0017065 Arg of perigee: 355.5275 deg Mean anomaly: 004.5700 deg Mean motion: 14.76571414 rev/day Decay rate: 5.74e-06 rev/day^2 Epoch rev: 00298 Checksum: 285
Satellite: NANOSALD Catalog number: 37361 Epoch time: 11116.73946851 Element set: 0160 Inclination: 071.9704 deg RA of node: 150.7935 deg Eccentricity: 0.0033612 Arg of perigee: 294.3537 deg Mean anomaly: 065.3944 deg Mean motion: 14.91486360 rev/day Decay rate: 1.10781e-03 rev/day^2 Epoch rev: 01443 Checksum: 295
Satellite: FAST2 Catalog number: 37380 Epoch time: 11125.24822848 Element set: 0154 Inclination: 071.9716 deg RA of node: 133.9983 deg Eccentricity: 0.0017701 Arg of perigee: 352.8289 deg Mean anomaly: 007.2583 deg Mean motion: 14.76338325 rev/day Decay rate: 4.98e-06 rev/day^2 Epoch rev: 02452 Checksum: 311
/EX SB KEPS @ AMSAT $ORB11125.W Orbital Elements 11125.WEATHER
HR AMSAT ORBITAL ELEMENTS FOR WEATHER SATELLITES FROM WA5QGD FORT WORTH,TX May 5, 2011 Send Subscribe/unsubscribe to KEPS at http://www.amsat.org/mailman/listinfo/keps BID: ORB11125.W TO ALL RADIO AMATEURS BT
